DL2DHM-13 Weather Reports


time (UTC)temp
C
wind
direction
speed
KPH
gust
KPH
rain 1hr
cm
rain 24hr
cm
rain mn
cm
humidity
%
barometer
mb
20260506222551 8 312 0.0 3.2 0.05 2.18 0.03 94 1008.4
20260506222049 8 315 0.0 4.8 0.05 2.16 0.00 94 1008.4
20260506221547 8 315 0.0 4.8 0.05 2.16 0.00 94 1008.4
20260506221047 8 315 0.0 4.8 0.05 2.16 0.00 94 1008.4
20260506220545 8 266 0.0 6.4 0.05 2.16 0.00 94 1008.3
20260506220043 8 341 0.0 3.2 0.05 2.16 0.00 94 1008.3
20260506215543 8 341 0.0 6.4 0.05 2.16 2.13 94 1008.2
20260506215044 8 341 1.6 6.4 0.05 2.16 2.13 94 1008.2
20260506214544 8 265 0.0 3.2 0.05 2.16 2.13 94 1008.1
20260506214042 8 323 0.0 3.2 0.05 2.16 2.13 94 1008.1
20260506213543 8 323 0.0 3.2 0.03 2.13 2.11 94 1008.1
20260506213040 8 323 0.0 3.2 0.03 2.13 2.11 94 1008.0
20260506212541 8 323 0.0 3.2 0.03 2.13 2.11 94 1008.0
20260506212040 8 323 0.0 3.2 0.03 2.13 2.11 94 1008.0
20260506211539 8 324 0.0 3.2 0.03 2.13 2.11 94 1007.9
20260506211039 8 323 0.0 4.8 0.03 2.13 2.11 94 1007.9
20260506210539 8 22 0.0 4.8 0.00 2.11 2.11 94 1007.9
20260506210040 8 22 0.0 4.8 0.00 2.11 2.11 94 1007.8
20260506205538 8 25 0.0 4.8 0.00 2.11 2.11 94 1007.7
20260506205038 8 22 0.0 3.2 0.00 2.11 2.11 94 1007.8
20260506204548 8 22 0.0 1.6 0.00 2.11 2.11 94 1007.8
20260506204038 8 22 0.0 4.8 0.00 2.11 2.11 94 1007.8
20260506203533 8 22 0.0 4.8 0.00 2.11 2.11 94 1007.7
20260506203033 8 22 0.0 4.8 0.00 2.11 2.11 94 1007.7
20260506202533 8 22 1.6 4.8 0.00 2.11 2.11 94 1007.8
20260506202033 8 22 0.0 8.0 0.00 2.11 2.11 94 1007.7
20260506201535 8 22 3.2 8.0 0.00 2.11 2.11 94 1007.7
20260506201031 8 271 0.0 4.8 0.00 2.11 2.11 94 1007.6
20260506200531 8 270 0.0 8.0 0.00 2.11 2.11 94 1007.6
20260506200033 8 333 0.0 8.0 0.00 2.11 2.11 94 1007.6
20260506195530 8 31 0.0 4.8 0.00 2.11 2.11 94 1007.5
20260506195033 8 355 0.0 4.8 0.00 2.11 2.11 94 1007.4
20260506194530 8 328 0.0 3.2 0.00 2.11 2.11 94 1007.5
20260506194029 8 296 0.0 4.8 0.03 2.11 2.11 94 1007.5
20260506193528 8 296 0.0 4.8 0.03 2.11 2.11 94 1007.5
20260506193028 8 311 0.0 4.8 0.03 2.11 2.11 94 1007.4
20260506192528 8 311 0.0 4.8 0.03 2.11 2.11 94 1007.4
20260506192027 8 310 0.0 3.2 0.03 2.11 2.11 94 1007.3
20260506191527 8 310 0.0 3.2 0.03 2.11 2.11 94 1007.2
20260506191025 8 310 0.0 3.2 0.03 2.11 2.11 94 1007.1
20260506190626 8 310 0.0 3.2 0.03 2.11 2.11 94 1007.1
20260506190023 8 309 0.0 3.2 0.03 2.11 2.11 94 1007.1
20260506185523 8 309 0.0 3.2 0.03 2.11 2.11 94 1007.0
20260506185023 8 308 0.0 3.2 0.03 2.11 2.11 93 1006.9
20260506184522 8 309 0.0 4.8 0.03 2.11 2.11 93 1006.8
20260506184022 8 308 1.6 6.4 0.00 2.11 2.08 93 1006.7
20260506183521 8 346 1.6 6.4 0.03 2.11 2.08 93 1006.7
20260506183021 8 38 0.0 4.8 0.03 2.11 2.08 93 1006.7
20260506182519 8 9 1.6 4.8 0.03 2.11 2.08 93 1006.6
20260506182019 8 31 0.0 4.8 0.05 2.11 2.08 94 1006.6
20260506181525 8 31 0.0 4.8 0.05 2.11 2.08 94 1006.6
20260506181021 8 50 0.0 4.8 0.05 2.11 2.08 94 1006.5
20260506180521 8 50 1.6 6.4 0.05 2.11 2.08 93 1006.5
20260506180017 8 18 1.6 8.0 0.05 2.11 2.08 93 1006.5
20260506175516 8 19 3.2 8.0 0.05 2.11 2.08 93 1006.4
20260506175015 8 347 3.2 4.8 0.08 2.11 2.08 93 1006.2
20260506174515 8 346 1.6 4.8 0.08 2.11 2.08 93 1006.2
20260506174020 8 344 1.6 4.8 0.10 2.11 2.08 93 1006.2
20260506173515 8 321 1.6 4.8 0.10 2.08 2.06 93 1006.1
20260506173015 8 35 1.6 4.8 0.13 2.08 2.06 93 1006.1
20260506172514 8 35 1.6 6.4 0.15 2.08 2.06 93 1006.2
20260506172014 8 51 1.6 6.4 0.13 2.06 2.03 93 1006.2
20260506171522 8 37 1.6 4.8 0.15 2.06 2.03 93 1006.1
20260506171114 8 41 1.6 6.4 0.15 2.06 2.03 93 1006.2
20260506170512 8 41 1.6 6.4 0.15 2.06 2.03 93 1006.1
20260506170014 8 16 0.0 1.6 0.15 2.03 2.03 93 1006.1
20260506165512 8 16 0.0 3.2 0.15 2.03 2.03 93 1006.2
20260506165013 8 16 0.0 4.8 0.13 2.03 2.01 93 1006.2
20260506164511 8 16 0.0 6.4 0.10 2.01 1.98 93 1006.1
20260506164013 8 17 3.2 6.4 0.10 2.01 1.98 93 1006.0
20260506163513 8 15 1.6 4.8 0.08 1.98 1.96 93 1006.0
20260506163011 8 13 1.6 4.8 0.08 1.96 1.93 93 1006.0
20260506162512 8 11 0.0 8.0 0.05 1.93 1.93 93 1006.0
20260506162010 8 11 3.2 8.0 0.08 1.93 1.93 94 1006.1
20260506161511 8 324 1.6 4.8 0.08 1.93 1.91 94 1006.1
20260506161010 8 324 1.6 4.8 0.08 1.93 1.91 94 1006.0
20260506160511 8 26 1.6 4.8 0.08 1.91 1.88 94 1006.0
20260506160010 8 27 1.6 6.4 0.10 1.91 1.88 94 1006.0
20260506155508 8 21 1.6 6.4 0.10 1.91 1.88 93 1006.0
20260506155010 8 350 1.6 4.8 0.10 1.91 1.88 93 1006.0
20260506154508 8 19 1.6 4.8 0.13 1.91 1.88 93 1006.0
20260506154007 8 29 0.0 4.8 0.13 1.91 1.88 93 1006.0
20260506153509 8 11 1.6 4.8 0.13 1.91 1.88 93 1006.0
20260506153007 8 11 0.0 4.8 0.10 1.88 1.85 93 1005.9
20260506152508 8 9 1.6 4.8 0.10 1.88 1.85 93 1005.9
20260506152007 8 11 1.6 9.7 0.08 1.85 1.83 93 1005.9
20260506151507 8 5 3.2 9.7 0.05 1.83 1.83 93 1006.0
20260506151010 8 355 3.2 8.0 0.05 1.83 1.83 93 1006.0
20260506150509 8 19 3.2 8.0 0.05 1.83 1.80 93 1006.0
20260506150010 8 355 3.2 8.0 0.03 1.80 1.78 93 1005.9
20260506145505 8 333 1.6 4.8 0.03 1.80 1.78 93 1005.9
20260506145005 9 330 1.6 11.3 0.03 1.80 1.78 93 1005.9
20260506144505 9 20 0.0 4.8 0.00 1.78 1.75 93 1005.9
20260506144005 9 351 0.0 4.8 0.00 1.78 1.75 93 1005.8
20260506143505 9 26 1.6 6.4 0.00 1.78 1.75 93 1005.8
20260506143012 8 26 3.2 6.4 0.00 1.78 1.75 93 1005.7
20260506142503 9 5 3.2 6.4 0.00 1.78 1.75 93 1005.7
20260506142002 8 22 3.2 6.4 0.00 1.78 1.75 93 1005.6
20260506141502 8 30 1.6 6.4 0.00 1.78 1.75 93 1005.7
20260506141002 8 34 3.2 6.4 0.00 1.78 1.75 93 1005.7
20260506140502 8 24 1.6 6.4 0.00 1.78 1.75 93 1005.7
20260506140112 8 15 1.6 8.0 0.00 1.78 1.75 93 1005.8
20260506135600 8 13 3.2 9.7 0.00 1.78 1.75 93 1005.7
20260506135100 8 12 4.8 9.7 0.00 1.78 1.75 93 1005.7
20260506134600 8 355 3.2 6.4 0.00 1.78 1.75 93 1005.7
20260506134500 9 5 3.2 6.4 0.00 1.78 1.75 93 1005.6
20260506134100 8 57 1.6 9.7 0.00 1.78 1.75 93 1005.7
20260506133600 8 27 3.2 9.7 0.00 1.78 1.75 93 1005.7
20260506133101 8 65 3.2 8.0 0.00 1.78 1.75 93 1005.7
20260506132605 8 82 3.2 8.0 0.00 1.78 1.75 93 1005.7
20260506132100 8 32 3.2 8.0 0.00 1.78 1.75 93 1005.6
20260506131601 8 28 3.2 9.7 0.00 1.78 1.75 93 1005.6
20260506131100 8 19 6.4 9.7 0.00 1.78 1.75 93 1005.5
20260506130602 8 13 4.8 9.7 0.00 1.78 1.75 93 1005.5
20260506130133 8 30 3.2 8.0 0.00 1.78 1.75 93 1005.5
20260506125602 8 72 3.2 6.4 0.00 1.78 1.75 94 1005.6
20260506125058 8 32 1.6 6.4 0.00 1.78 1.75 94 1005.6
20260506124558 8 9 1.6 6.4 0.00 1.78 1.75 94 1005.5
20260506124058 8 360 1.6 9.7 0.00 1.78 1.75 94 1005.5
20260506123559 8 19 3.2 8.0 0.03 1.78 1.75 94 1005.4
20260506123058 8 12 3.2 8.0 0.03 1.78 1.75 94 1005.3
20260506122558 8 28 3.2 8.0 0.03 1.78 1.75 94 1005.3
20260506122058 8 298 3.2 8.0 0.03 1.78 1.75 94 1005.3
20260506121557 8 26 4.8 8.0 0.03 1.78 1.75 94 1005.2
20260506121057 8 19 3.2 6.4 0.03 1.78 1.75 94 1005.2
20260506120556 8 26 1.6 6.4 0.05 1.78 1.75 94 1005.2
20260506120059 8 11 3.2 8.0 0.05 1.78 1.75 94 1005.0
20260506115556 8 11 1.6 8.0 0.05 1.78 1.75 94 1005.1
20260506115054 8 5 1.6 8.0 0.05 1.78 1.75 94 1005.0
20260506114556 8 5 1.6 8.0 0.05 1.78 1.75 94 1005.0
20260506114053 8 17 3.2 9.7 0.05 1.78 1.75 94 1004.9
20260506113553 8 13 3.2 9.7 0.05 1.75 1.75 94 1005.0
20260506113103 8 5 3.2 6.4 0.05 1.75 1.75 93 1005.0
20260506112552 8 283 1.6 8.0 0.05 1.75 1.75 93 1005.0
20260506112054 8 17 1.6 4.8 0.05 1.75 1.75 93 1005.1
20260506111553 8 17 1.6 6.4 0.05 1.75 1.75 93 1005.1
20260506111052 8 28 1.6 6.4 0.05 1.75 1.75 94 1005.2
20260506110551 8 35 1.6 8.0 0.03 1.75 1.73 93 1005.1
20260506110059 8 5 1.6 8.0 0.03 1.75 1.73 93 1005.0
20260506105551 8 17 3.2 9.7 0.00 1.73 1.70 93 1005.0
20260506105050 8 5 3.2 9.7 0.03 1.73 1.70 93 1004.9
20260506104605 8 19 4.8 8.0 0.03 1.73 1.70 93 1004.9
20260506104050 8 28 3.2 8.0 0.03 1.73 1.70 93 1004.9
20260506103550 8 27 3.2 11.3 0.03 1.73 1.70 93 1004.9
20260506103051 8 14 6.4 11.3 0.03 1.73 1.70 94 1004.8
20260506102550 8 38 6.4 14.5 0.03 1.73 1.70 94 1004.8
20260506102048 8 28 4.8 9.7 0.05 1.73 1.70 94 1004.8
20260506101556 8 34 4.8 9.7 0.05 1.73 1.70 94 1004.7
20260506101049 8 28 3.2 8.0 0.05 1.73 1.70 94 1004.7
20260506100550 8 9 3.2 9.7 0.05 1.73 1.70 93 1004.6
20260506100048 8 350 4.8 9.7 0.05 1.73 1.70 93 1004.6
20260506095550 8 334 3.2 6.4 0.05 1.73 1.70 93 1004.6
20260506095047 8 360 3.2 8.0 0.03 1.70 1.68 93 1004.6
20260506094555 8 13 3.2 8.0 0.03 1.70 1.68 93 1004.6
20260506094047 8 32 3.2 8.0 0.03 1.70 1.68 94 1004.6
20260506093548 8 60 1.6 9.7 0.03 1.70 1.68 93 1004.5
20260506093053 8 32 3.2 9.7 0.03 1.70 1.68 93 1004.5
20260506092546 8 21 4.8 9.7 0.03 1.70 1.68 93 1004.4
20260506092046 8 20 3.2 9.7 0.00 1.68 1.65 93 1004.4
20260506091545 8 36 4.8 9.7 0.00 1.68 1.65 93 1004.4
20260506091047 8 19 3.2 8.0 0.00 1.68 1.65 93 1004.3
20260506090550 8 73 1.6 6.4 0.00 1.68 1.65 93 1004.3
20260506090045 8 9 3.2 6.4 0.00 1.68 1.65 93 1004.3
20260506085544 8 59 1.6 8.0 0.00 1.68 1.65 93 1004.2
20260506085044 8 18 3.2 9.7 0.00 1.68 1.65 93 1004.1
20260506084548 8 339 3.2 8.0 0.00 1.68 1.65 93 1004.1
20260506084044 8 13 3.2 9.7 0.00 1.68 1.65 93 1004.1
20260506083542 8 16 3.2 12.9 0.00 1.68 1.65 93 1004.0
20260506083041 8 13 4.8 12.9 0.00 1.68 1.65 93 1004.0
20260506082542 8 35 3.2 9.7 0.00 1.68 1.65 93 1004.0
20260506082044 8 28 4.8 11.3 0.00 1.68 1.65 93 1004.0
20260506081539 8 36 6.4 12.9 0.00 1.68 1.65 93 1003.9
20260506081037 8 25 4.8 12.9 0.00 1.68 1.65 93 1003.9
20260506080536 8 15 4.8 9.7 0.00 1.68 1.65 93 1003.9
20260506073035 8 22 3.2 8.0 0.03 1.68 1.65 94 1003.7
20260506072531 8 32 4.8 8.0 0.03 1.68 1.65 94 1003.8
20260506072030 8 32 3.2 8.0 0.05 1.68 1.65 94 1003.8
20260506071530 8 20 3.2 8.0 0.05 1.68 1.65 94 1003.8
20260506071028 8 17 3.2 8.0 0.05 1.68 1.65 94 1003.8
20260506070529 8 42 3.2 9.7 0.05 1.68 1.65 94 1003.7
20260506062022 8 36 1.6 9.7 0.13 1.65 1.63 94 1003.6
20260506061522 8 22 4.8 9.7 0.13 1.65 1.63 94 1003.5
20260506061021 8 28 3.2 8.0 0.15 1.65 1.63 94 1003.5
20260506060524 8 27 3.2 8.0 0.15 1.65 1.63 94 1003.5
20260506051015 9 80 1.6 6.4 0.13 1.50 1.45 94 1003.4
20260506050521 9 44 1.6 8.0 0.15 1.50 1.45 94 1003.4
20260506045011 9 32 3.2 8.0 0.20 1.42 1.42 94 1003.3
20260506044511 9 53 1.6 8.0 0.20 1.42 1.42 94 1003.3
20260506044019 9 111 1.6 9.7 0.23 1.42 1.42 94 1003.3
20260506043510 9 46 3.2 8.0 0.23 1.42 1.42 94 1003.3
20260506043010 9 66 1.6 8.0 0.28 1.42 1.42 94 1003.3
20260506042509 9 70 1.6 8.0 0.28 1.42 1.40 94 1003.3
20260506042012 10 95 1.6 6.4 0.28 1.40 1.37 94 1003.4
20260506041517 10 111 1.6 6.4 0.28 1.37 1.37 94 1003.4
20260506041007 10 107 0.0 6.4 0.28 1.37 1.35 94 1003.4
20260506040510 10 104 1.6 6.4 0.30 1.35 1.32 94 1003.4
20260506040006 10 55 0.0 4.8 0.28 1.30 1.27 94 1003.4
20260506035506 10 77 0.0 6.4 0.28 1.27 1.27 94 1003.4
20260506035006 10 90 1.6 6.4 0.28 1.27 1.24 94 1003.4
20260506034508 10 92 0.0 4.8 0.28 1.24 1.22 94 1003.4
20260506034004 10 69 1.6 6.4 0.28 1.22 1.19 94 1003.4
20260506033505 10 82 1.6 6.4 0.25 1.17 1.17 94 1003.4
20260506033004 10 73 0.0 4.8 0.25 1.17 1.14 94 1003.5
20260506032503 10 73 1.6 6.4 0.25 1.14 1.12 94 1003.5
20260506032003 10 65 1.6 6.4 0.25 1.12 1.09 94 1003.6
20260506031503 10 121 1.6 8.0 0.25 1.09 1.09 94 1003.7
20260506031002 10 122 0.0 3.2 0.25 1.09 1.07 94 1003.7
20260506030501 10 122 0.0 3.2 0.23 1.04 1.02 94 1003.8
20260506030000 10 122 0.0 6.4 0.23 1.02 0.99 94 1003.8
20260506025601 10 122 1.6 6.4 0.23 0.99 0.99 94 1003.9
20260506025100 10 57 1.6 4.8 0.23 0.99 0.97 94 1003.9
20260506024559 10 82 0.0 3.2 0.23 0.97 0.94 93 1004.0
20260506024058 10 82 0.0 3.2 0.23 0.94 0.91 93 1004.0
20260506023558 10 83 0.0 4.8 0.23 0.91 0.89 93 1004.1
20260506023101 10 83 0.0 4.8 0.23 0.89 0.89 94 1004.1
20260506022555 10 94 0.0 4.8 0.23 0.89 0.86 94 1004.1
20260506022054 10 94 0.0 4.8 0.23 0.86 0.84 94 1004.2
20260506021557 10 103 0.0 4.8 0.20 0.84 0.81 94 1004.2
20260506021056 10 103 0.0 3.2 0.20 0.81 0.79 94 1004.3
20260506020553 10 103 0.0 3.2 0.20 0.79 0.79 94 1004.3
20260506020053 10 103 0.0 3.2 0.23 0.79 0.79 94 1004.4
20260506015556 10 103 0.0 1.6 0.20 0.79 0.76 94 1004.3
20260506015053 10 103 0.0 1.6 0.20 0.79 0.71 94 1004.4
20260506014556 10 105 0.0 0.0 0.20 0.76 0.71 94 1004.4
20260506014054 10 105 0.0 0.0 0.18 0.71 0.71 94 1004.4
20260506013552 10 105 0.0 0.0 0.18 0.71 0.69 94 1004.5
20260506013050 10 105 0.0 0.0 0.15 0.71 0.66 93 1004.6
20260506012550 10 105 0.0 0.0 0.15 0.69 0.64 93 1004.6
20260506012050 10 105 0.0 0.0 0.15 0.66 0.61 93 1004.6
20260506011548 10 105 0.0 1.6 0.18 0.66 0.61 93 1004.7
20260506011048 10 105 0.0 3.2 0.18 0.64 0.61 93 1004.7
20260506010550 10 105 0.0 3.2 0.15 0.61 0.58 93 1004.7
20260506010049 10 105 0.0 3.2 0.15 0.61 0.56 93 1004.7
20260506005547 10 105 0.0 3.2 0.18 0.61 0.56 93 1004.8
20260506005047 10 105 0.0 3.2 0.20 0.61 0.53 93 1004.8
20260506004548 10 105 0.0 3.2 0.20 0.58 0.51 93 1004.9
20260506004046 10 105 0.0 6.4 0.23 0.58 0.51 93 1004.8
20260506003546 10 109 1.6 6.4 0.23 0.56 0.51 93 1004.9
20260506003045 10 123 1.6 3.2 0.23 0.56 0.51 93 1004.9
20260506002547 10 121 0.0 6.4 0.23 0.53 0.48 93 1005.0
20260506002045 10 121 1.6 9.7 0.25 0.51 0.46 93 1005.0
20260506001606 10 87 1.6 6.4 0.25 0.51 0.43 93 1005.0
20260506001044 10 81 0.0 3.2 0.23 0.48 0.43 93 1005.0
20260506000543 10 80 1.6 4.8 0.23 0.48 0.43 93 1005.0
20260506000048 10 76 0.0 8.0 0.23 0.46 0.41 93 1005.0
20260505235543 10 71 1.6 8.0 0.23 0.46 0.38 93 1005.1
20260505235044 10 41 1.6 6.4 0.18 0.43 0.33 93 1005.1
20260505234549 10 107 1.6 9.7 0.18 0.41 0.33 93 1005.2
20260505234042 10 113 3.2 9.7 0.15 0.38 0.30 93 1005.2
20260505233543 10 87 3.2 9.7 0.15 0.36 0.28 93 1005.3
20260505233046 11 56 3.2 9.7 0.18 0.33 0.25 93 1005.3
20260505232539 11 72 1.6 12.9 0.20 0.33 0.23 93 1005.4
20260505232039 11 88 3.2 12.9 0.18 0.28 0.20 93 1005.3
20260505231548 11 42 1.6 8.0 0.15 0.25 0.18 93 1005.4
20260505231038 11 77 3.2 8.0 0.15 0.25 0.18 93 1005.3
20260505230537 11 66 1.6 8.0 0.15 0.23 0.15 93 1005.4
20260505230039 11 44 4.8 8.0 0.15 0.23 0.15 93 1005.4
20260505225538 11 48 1.6 6.4 0.15 0.28 0.15 93 1005.4
20260505225036 11 71 1.6 6.4 0.18 0.28 0.15 93 1005.4
20260505224540 11 76 1.6 6.4 0.15 0.25 0.15 93 1005.5
20260505224035 11 119 0.0 6.4 0.15 0.25 0.15 93 1005.5
20260505223534 11 119 1.6 6.4 0.15 0.23 0.13 93 1005.5
20260505223041 11 74 1.6 4.8 0.10 0.20 0.08 93 1005.6